Wind_Speed
11 10 9 5 2 2 5 7 9 9 9 8 8 7 7 6 6 6 6 5 6 7 8 7 6 6 6 8 9 8 10 9 12 12 10 10 8 7 6 6 5 5 5
8 11 8 6 5 6 9 9 10 11 9 8 7 7 5 4 3 0 3 5 8 8 9 9 8 7 9 9 9 9 12 13 10 12 10 10 9 8 6 6 6 4 5
9 8 7 6 7 8 10 10 11 11 8 7 7 5 5 3 2 5 4 4 4 5 7 7 6 8 11 9 10 10 10 10 10 10 10 9 9 9 7 6 5 5 7
9 7 7 8 8 9 10 10 11 10 8 7 7 6 6 5 5 4 5 5 5 5 4 4 3 3 6 7 7 8 8 9 8 8 8 7 8 7 7 5 6 7 7
7 7 9 9 9 10 10 11 10 9 8 8 6 5 5 5 5 5 5 5 6 7 5 6 6 5 5 2 5 6 6 6 5 4 5 4 5 5 5 5 5 5 5
8 8 8 9 10 10 10 10 8 9 7 6 8 8 8 7 7 6 6 5 5 6 6 6 6 5 2 2 8 6 4 5 4 3 5 7 7 5 3 3 4 5 4
10 10 9 9 9 10 8 7 8 8 7 8 10 10 11 10 10 10 8 8 8 10 11 9 6 4 1 5 7 5 4 4 4 4 7 8 7 8 7 3 5 7 8
11 10 9 9 9 9 7 7 8 6 7 11 11 14 15 18 19 18 16 14 13 14 14 13 12 8 4 6 9 5 2 2 5 6 9 13 13 9 10 9 8 8 10
10 9 8 9 9 9 8 8 9 9 11 13 14 14 15 15 14 15 14 14 13 13 16 18 17 14 9 5 5 1 4 5 8 7 10 16 14 7 6 13 12 13 11
10 9 9 10 10 9 9 11 10 11 14 15 13 11 11 11 11 12 14 13 12 15 16 15 18 20 16 13 11 7 5 4 6 8 9 11 14 9 6 9 11 12 19
9 10 9 10 10 11 13 12 13 16 15 14 12 11 12 13 13 12 13 12 11 13 14 14 16 18 18 16 13 11 8 6 5 5 8 10 11 11 3 9 7 6 4
10 11 10 11 12 14 14 14 16 17 16 14 14 14 12 12 11 10 11 10 11 12 13 13 15 14 13 13 10 7 6 5 6 8 10 11 11 12 12 12 12 12 11
11 12 13 14 14 15 17 18 20 17 16 16 15 13 12 11 10 8 9 9 9 11 13 12 9 9 10 9 8 7 7 9 10 11 12 13 13 12 14 16 16 15 15
12 14 15 17 17 19 21 22 21 19 17 15 13 12 11 10 11 8 8 6 6 10 12 11 9 8 11 13 12 11 12 12 12 14 16 17 19 19 20 20 19 19 17
13 15 16 16 19 21 21 20 20 18 16 15 12 11 10 10 9 8 8 6 5 6 7 7 7 8 11 13 13 13 12 11 12 14 16 17 17 17 18 17 15 15 16
12 14 16 18 21 23 20 20 18 17 14 13 11 10 7 6 7 8 8 7 5 5 5 6 7 9 10 11 11 11 10 13 14 17 19 19 20 20 20 18 16 16 11
14 15 18 20 22 20 18 18 16 15 13 10 8 7 6 7 8 9 10 8 6 5 6 7 8 10 10 11 11 11 13 14 18 22 24 24 24 24 24 25 25 24 23
15 17 20 20 19 17 15 15 13 11 10 7 6 6 6 7 8 11 11 11 12 13 11 8 9 11 10 10 13 18 20 20 22 23 25 28 30 29 30 30 30 30 28
13 16 20 19 17 16 15 13 11 9 7 5 5 5 7 7 8 13 12 12 14 16 15 14 13 10 11 15 17 18 19 21 22 24 26 30 31 32 33 32 33 32 29
12 11 12 16 15 13 13 13 11 9 8 7 7 7 6 5 6 8 11 13 15 15 13 15 14 13 14 16 19 20 18 20 23 25 28 32 33 31 31 33 34 34 31
12 11 11 12 13 12 10 10 8 6 5 4 4 4 2 2 3 7 8 10 12 15 15 15 15 15 14 16 18 21 21 23 26 26 26 28 28 30 33 32 32 32 31
9 11 11 11 10 9 8 7 6 5 4 3 1 1 3 4 7 9 11 12 13 15 18 20 19 18 18 18 16 18 17 25 29 25 32 36 33 31 32 33 34 33 34
8 9 10 10 9 9 8 8 7 6 5 3 0 2 5 8 9 10 9 12 14 16 18 23 24 23 28 26 20 19 12 15 19 28 33 37 36 35 36 36 36 36 36
8 6 7 8 8 8 8 8 7 6 4 3 3 3 5 7 7 9 10 12 13 17 19 24 27 32 36 29 23 11 9 25 21 29 33 35 39 42 38 34 36 35 35
7 8 6 7 8 8 8 7 6 5 2 2 3 6 8 7 8 11 15 15 16 17 21 25 28 38 34 22 37 39 27 31 29 29 29 32 38 36 36 36 38 37 39
6 9 9 7 8 9 9 7 7 5 1 1 2 3 3 5 10 14 18 19 21 22 27 34 39 48 45 52 46 45 33 35 29 34 39 36 42 32 33 31 32 37 39
Wind_Direction
139 153 163 175 187 166 122 114 111 104 95 87 87 88 88 100 106 86 64 36 46 64 65 72 86 86 90 98 86 64 62 70 76 74 78 83 87 85 92 102 107 122 133
167 161 153 146 151 126 111 110 104 97 91 96 108 115 100 106 128 342 7 61 90 63 49 51 65 73 71 79 83 72 55 52 62 71 74 79 75 77 83 103 116 129 138
167 160 144 138 123 115 104 94 90 91 90 91 105 83 85 86 80 80 68 50 43 49 47 68 77 68 67 66 80 81 77 70 73 73 77 81 84 90 85 75 69 90 98
162 168 139 129 118 111 100 93 92 93 86 81 74 75 62 62 61 37 26 24 25 24 36 29 66 36 37 57 81 88 81 73 70 82 84 88 95 91 79 57 49 45 69
169 161 141 133 124 108 99 101 99 91 81 78 84 71 59 56 46 29 12 2 2 6 356 342 321 325 335 56 120 115 110 105 87 77 82 65 67 80 66 42 24 20 36
151 143 136 127 119 108 103 107 101 90 79 69 63 61 56 49 39 26 16 15 9 20 21 26 26 26 89 125 153 154 128 102 87 26 23 25 19 360 32 19 3 341 341
149 142 144 128 112 105 104 110 97 88 70 74 76 71 67 65 62 59 61 64 64 64 57 42 41 51 79 185 180 160 126 104 78 35 19 13 358 344 329 332 324 313 302
152 145 138 130 117 122 130 119 104 97 91 92 92 91 94 87 79 75 77 70 72 79 69 59 50 46 73 153 191 187 217 338 355 345 338 331 306 298 299 312 308 292 285
155 155 142 140 136 143 135 121 109 107 104 106 105 96 86 81 79 82 77 69 65 64 71 68 57 49 67 105 115 17 306 309 343 334 349 3 14 339 276 299 298 273 271
164 165 148 153 147 139 130 117 119 113 115 114 105 97 79 77 74 77 79 75 75 76 76 75 74 65 74 100 106 103 69 39 46 24 360 11 19 16 334 357 7 320 268
164 165 157 154 146 133 126 127 120 119 121 116 106 97 84 80 80 83 89 90 72 71 71 69 73 72 72 81 93 93 84 71 54 28 13 8 13 4 130 354 354 343 354
149 151 154 152 146 135 134 128 124 123 121 115 104 96 94 90 93 97 95 84 72 66 56 56 58 64 73 76 75 69 56 41 25 8 359 356 355 353 348 336 332 337 328
136 139 145 145 142 138 132 127 129 125 119 114 106 101 90 83 82 93 92 82 74 59 49 43 53 70 75 71 56 38 20 11 9 11 1 352 349 350 345 337 335 329 325
131 130 137 141 139 136 134 135 130 124 117 107 102 96 84 73 61 55 62 63 65 63 34 13 17 33 46 40 31 22 12 6 2 359 354 352 345 343 342 336 332 325 321
123 123 129 133 132 135 136 131 126 122 119 114 102 87 72 56 49 37 28 25 28 46 35 357 1 14 30 27 16 7 3 355 353 358 349 340 333 332 331 330 329 316 315
121 124 128 134 137 141 140 134 129 122 111 101 93 78 65 41 22 20 21 14 356 5 2 4 355 359 18 11 1 346 338 351 352 346 347 346 346 345 340 342 339 332 320
132 135 138 141 144 144 140 135 128 121 111 99 88 77 46 18 6 2 6 360 343 329 331 345 350 357 6 359 356 11 14 4 355 350 347 347 349 346 342 343 344 339 337
137 144 147 148 148 146 144 139 134 120 109 112 92 56 46 19 19 46 44 46 41 30 18 357 349 342 343 345 1 5 2 359 355 351 345 343 342 339 337 336 331 329 327
144 147 155 156 155 155 152 151 147 135 133 121 98 66 49 48 53 52 46 32 35 33 36 43 41 29 15 8 3 356 351 348 344 342 340 337 335 333 330 330 324 320 317
152 156 153 165 164 156 156 160 159 156 148 128 106 79 59 46 28 42 34 19 8 5 8 15 14 10 2 354 349 338 338 341 340 335 330 328 320 320 320 320 321 317 308
152 159 164 164 170 170 163 158 157 153 138 126 103 90 65 342 3 12 360 342 342 342 340 344 345 341 335 334 340 334 328 329 327 330 333 342 339 327 319 315 313 313 311
150 159 165 164 163 162 160 159 168 180 177 173 153 44 351 331 324 332 339 336 336 335 332 325 317 311 302 296 321 334 343 341 341 336 333 337 337 334 328 319 315 315 315
150 155 160 164 164 163 161 168 185 202 204 205 273 325 318 323 338 335 326 330 331 331 330 323 319 308 302 297 289 296 288 352 334 333 326 322 322 327 322 320 315 311 313
147 154 160 161 168 169 174 179 191 205 210 225 271 306 334 336 329 331 328 320 313 318 321 317 316 312 312 306 326 327 331 11 345 326 330 324 322 318 311 312 315 313 313
177 176 175 177 176 173 176 180 191 202 211 264 297 285 301 321 325 322 320 319 315 317 316 314 317 321 316 315 354 7 359 342 335 344 351 343 339 334 328 321 319 315 316
191 181 177 182 187 184 177 171 166 175 207 342 290 312 327 318 314 324 321 316 321 326 323 331 339 334 337 346 1 3 358 351 346 348 348 347 340 339 340 331 321 317 316
Height
5897 5898 5899 5901 5902 5902 5903 5904 5903 5904 5905 5905 5905 5907 5907 5907 5908 5908 5908 5909 5908 5910 5910 5910 5909 5909 5908 5908 5909 5909 5909 5910 5908 5908 5908 5908 5907 5907 5907 5907 5907 5907 5907
5897 5899 5900 5902 5903 5904 5904 5905 5906 5906 5907 5907 5908 5908 5909 5909 5910 5909 5909 5910 5910 5911 5911 5910 5909 5909 5910 5910 5910 5910 5910 5909 5909 5909 5909 5909 5908 5908 5908 5908 5907 5907 5907
5898 5900 5900 5903 5904 5905 5905 5907 5908 5908 5909 5910 5910 5911 5911 5911 5910 5910 5909 5910 5910 5910 5910 5909 5908 5908 5910 5911 5911 5910 5910 5910 5910 5910 5910 5909 5909 5909 5910 5910 5909 5907 5906
5900 5901 5903 5904 5905 5905 5906 5908 5909 5910 5911 5911 5912 5912 5911 5910 5910 5909 5909 5909 5909 5909 5908 5908 5908 5908 5909 5910 5911 5910 5910 5911 5911 5910 5910 5909 5909 5910 5910 5911 5910 5909 5907
5901 5903 5904 5905 5906 5907 5909 5910 5911 5912 5912 5912 5912 5911 5910 5909 5909 5909 5909 5908 5908 5909 5908 5907 5907 5907 5908 5909 5911 5910 5910 5910 5910 5910 5909 5909 5908 5908 5908 5908 5908 5908 5907
5902 5904 5906 5906 5908 5910 5911 5911 5912 5912 5913 5912 5912 5911 5911 5910 5910 5909 5909 5908 5908 5908 5907 5907 5906 5906 5906 5908 5909 5909 5910 5910 5910 5910 5910 5909 5909 5908 5907 5907 5907 5907 5907
5903 5905 5907 5908 5910 5911 5912 5912 5912 5912 5912 5913 5913 5912 5912 5912 5911 5910 5909 5909 5908 5908 5908 5906 5906 5905 5905 5906 5907 5907 5908 5909 5909 5909 5909 5908 5908 5908 5907 5906 5906 5907 5907
5905 5907 5908 5910 5911 5911 5912 5913 5913 5913 5914 5915 5915 5915 5914 5914 5913 5912 5911 5911 5910 5910 5909 5907 5905 5905 5905 5904 5906 5907 5908 5908 5908 5908 5907 5906 5905 5905 5905 5906 5906 5905 5905
5907 5908 5909 5911 5911 5912 5913 5914 5914 5915 5917 5917 5917 5918 5917 5916 5916 5915 5913 5913 5912 5912 5910 5909 5907 5906 5904 5904 5906 5907 5906 5907 5906 5906 5906 5904 5902 5901 5903 5903 5902 5902 5902
5907 5909 5910 5911 5912 5913 5915 5916 5916 5917 5918 5919 5920 5920 5919 5918 5918 5917 5915 5914 5914 5913 5913 5911 5909 5907 5905 5904 5906 5907 5908 5907 5908 5907 5907 5904 5902 5901 5901 5901 5899 5897 5897
5909 5910 5911 5912 5913 5915 5917 5917 5918 5919 5920 5921 5921 5921 5921 5921 5920 5918 5917 5916 5916 5915 5915 5914 5912 5911 5909 5908 5908 5908 5909 5908 5907 5906 5906 5905 5903 5902 5900 5899 5898 5896 5895
5909 5910 5912 5914 5915 5916 5917 5918 5920 5921 5922 5923 5923 5923 5922 5922 5921 5920 5919 5919 5919 5918 5917 5916 5915 5914 5913 5911 5910 5910 5910 5909 5908 5906 5905 5905 5903 5901 5900 5899 5898 5896 5895
5910 5910 5912 5914 5915 5917 5918 5920 5921 5923 5924 5924 5924 5924 5924 5923 5923 5922 5920 5920 5919 5919 5919 5918 5917 5916 5914 5913 5913 5912 5912 5911 5909 5908 5907 5905 5904 5902 5900 5898 5896 5894 5893
5911 5911 5913 5915 5917 5919 5920 5921 5923 5925 5926 5926 5926 5926 5925 5925 5925 5924 5923 5922 5921 5920 5919 5919 5918 5916 5915 5914 5914 5913 5912 5912 5910 5908 5907 5904 5902 5900 5898 5896 5895 5894 5891
5912 5913 5915 5918 5919 5922 5923 5924 5925 5926 5927 5928 5928 5928 5926 5926 5926 5925 5924 5923 5923 5921 5919 5919 5918 5917 5915 5914 5915 5914 5913 5912 5911 5910 5909 5906 5904 5901 5897 5895 5892 5890 5889
5915 5915 5918 5920 5922 5924 5926 5927 5927 5927 5929 5930 5930 5929 5928 5927 5927 5927 5926 5924 5923 5922 5921 5919 5918 5918 5917 5916 5915 5914 5912 5911 5910 5908 5905 5903 5901 5898 5895 5892 5889 5887 5885
5916 5918 5920 5922 5925 5926 5927 5928 5929 5929 5930 5931 5931 5931 5930 5929 5928 5928 5926 5924 5924 5922 5920 5918 5917 5917 5916 5915 5914 5912 5910 5908 5905 5902 5899 5896 5893 5890 5888 5886 5883 5881 5879
5917 5919 5921 5924 5926 5927 5929 5930 5931 5931 5931 5932 5931 5931 5931 5931 5930 5928 5926 5925 5923 5921 5918 5917 5916 5916 5916 5914 5912 5909 5905 5903 5900 5897 5894 5890 5885 5883 5880 5878 5877 5876 5874
5919 5921 5923 5925 5927 5928 5930 5931 5932 5932 5933 5933 5932 5933 5933 5932 5931 5928 5927 5926 5925 5923 5921 5919 5918 5916 5914 5910 5907 5904 5900 5898 5896 5893 5890 5887 5884 5880 5877 5874 5872 5869 5865
5921 5923 5924 5926 5927 5929 5930 5931 5933 5934 5934 5934 5934 5934 5934 5933 5931 5929 5928 5927 5926 5925 5922 5919 5916 5914 5910 5907 5903 5900 5897 5895 5892 5889 5886 5883 5880 5877 5873 5870 5866 5863 5860
5921 5923 5925 5927 5928 5929 5931 5932 5933 5934 5934 5935 5935 5934 5934 5933 5931 5930 5929 5929 5927 5925 5921 5918 5916 5913 5909 5904 5899 5896 5893 5892 5889 5886 5883 5879 5874 5870 5867 5862 5859 5856 5853
5921 5923 5925 5927 5928 5929 5930 5931 5932 5934 5936 5936 5935 5935 5935 5933 5932 5931 5930 5929 5927 5924 5921 5917 5914 5911 5906 5900 5899 5896 5893 5889 5884 5882 5878 5873 5868 5863 5858 5854 5851 5846 5844
5922 5923 5924 5926 5927 5928 5929 5931 5933 5934 5936 5937 5936 5936 5935 5933 5932 5931 5930 5929 5927 5924 5919 5915 5912 5907 5900 5895 5892 5891 5890 5889 5885 5880 5876 5870 5862 5857 5851 5845 5841 5836 5834
5923 5924 5925 5926 5927 5928 5930 5931 5933 5934 5936 5936 5936 5936 5934 5933 5932 5931 5930 5928 5926 5923 5919 5914 5910 5903 5892 5888 5885 5889 5888 5882 5880 5875 5867 5862 5856 5850 5844 5837 5834 5830 5826
5922 5924 5925 5926 5927 5929 5930 5932 5933 5935 5936 5935 5935 5935 5934 5932 5931 5931 5929 5926 5924 5922 5916 5910 5908 5900 5894 5878 5884 5883 5885 5880 5874 5867 5862 5857 5850 5841 5834 5826 5825 5820 5817
5921 5922 5924 5925 5927 5929 5930 5932 5933 5934 5935 5935 5934 5933 5932 5931 5930 5930 5927 5925 5922 5919 5912 5908 5907 5903 5892 5879 5879 5880 5878 5878 5871 5862 5856 5849 5843 5835 5827 5821 5816 5811 5808